This is the latest recevied weather packets stored in our database for station/object T10BNorth. If no packets are shown the sender has not sent any weather packets the latest 10 day(s).
| Time | Temp. | Humidity | Pressure | Rain* | Wind** | Luminosity | Snow |
|---|---|---|---|---|---|---|---|
| 1778269050 | 9.44° C | 50% | 1007.2 hPa | 0 mm | - | 606 W/m² | - |
| 1778268989 | 9.44° C | 50% | 1007.2 hPa | 0 mm | - | 517 W/m² | - |
| 1778268928 | 9.44° C | 51% | 1007.2 hPa | 0 mm | - | 531 W/m² | - |
| 1778268870 | 9.44° C | 50% | 1007.2 hPa | 0 mm | - | 817 W/m² | - |
| 1778268808 | 9.44° C | 51% | 1007.2 hPa | 0 mm | - | 817 W/m² | - |
| 1778268748 | 9.44° C | 48% | 1007.3 hPa | 0 mm | - | 497 W/m² | - |
| 1778268689 | 9.44° C | 47% | 1007.2 hPa | 0 mm | - | 390 W/m² | - |
| 1778268629 | 9.44° C | 48% | 1007.2 hPa | 0 mm | - | 390 W/m² | - |
| 1778268570 | 9.44° C | 51% | 1007.2 hPa | 0 mm | - | 345 W/m² | - |
| 1778268506 | 9.44° C | 51% | 1007.2 hPa | 0 mm | - | 315 W/m² | - |
| 1778268446 | 9.44° C | 51% | 1007.2 hPa | 0 mm | - | 311 W/m² | - |
| 1778268385 | 9.44° C | 51% | 1007.2 hPa | 0 mm | - | 323 W/m² | - |
| 1778268324 | 9.44° C | 48% | 1007.1 hPa | 0 mm | - | 378 W/m² | - |
| 1778268263 | 9.44° C | 47% | 1007.2 hPa | 0 mm | - | 396 W/m² | - |
| 1778268200 | 9.44° C | 49% | 1007.2 hPa | 0 mm | - | 396 W/m² | - |
| 1778268142 | 9.44° C | 48% | 1007.2 hPa | 0 mm | - | 415 W/m² | - |
| 1778268080 | 9.44° C | 48% | 1007.2 hPa | 0 mm | - | 392 W/m² | - |
| 1778268022 | 9.44° C | 47% | 1007.1 hPa | 0 mm | - | 367 W/m² | - |
| 1778267960 | 9.44° C | 47% | 1007.1 hPa | 0 mm | - | 366 W/m² | - |
| 1778267938 | 9.44° C | 46% | 1007 hPa | 0 mm | - | 366 W/m² | - |
| 1778267840 | 10° C | 48% | 1007 hPa | 0 mm | - | 371 W/m² | - |
| 1778267780 | 10° C | 47% | 1007.2 hPa | 0 mm | - | 381 W/m² | - |
| 1778267722 | 10° C | 49% | 1007.1 hPa | 0 mm | - | 413 W/m² | - |
| 1778267661 | 10° C | 47% | 1007.1 hPa | 0 mm | - | 1113 W/m² | - |
| 1778267637 | 10° C | 50% | 1007 hPa | 0 mm | - | 1113 W/m² | - |
* Rain latest hour (hover to see other rain measurements)
** Current wind speed in m/s (hover to see current wind gust speed)